Большой Патом

Россия / Иркутская область     60°04′42″N   116°53′59″E
темп.,
°C
ветер,
м/с
пор.,
м/с
влажн.,
%
обл.,
%
осадки,
мм/ч
давл.,
гПа
погр.,
м
26 февраля, пт
пт2623:00−26ссв11100100 0.1 103320
02:00−28юв11100100 0.1 103219
05:00−30юв1210096 0.0 102919
08:00−30ююв129994 0.0 102722
11:00−23юв2690100 0.0 1023367
14:00−19вюв2484100 0.0 1021563
17:00−20всв1197100 0.1 102220
20:00−24зюз1199100 0.1 102420
27 февраля, сб
сб2723:00−23зюз1196100 0.0 102420
02:00−23зсз1195100 0.0 102324
05:00−22зюз1293100 0.0 102420
08:00−21зсз3997100 0.1 1025550
11:00−20зсз61088100 0.3 1026955
14:00−19зсз61081100 0.4 10251342
17:00−20зсз4885100 0.1 1027873
20:00−24з2387100 0.1 102947
28 февраля, вс
вс2823:00−26зюз249398 0.0 103058
02:00−27зюз349096 0.0 103278
05:00−29зюз348930 0.0 103357
08:00−29зюз358623 0.0 1035121
11:00−23з597170 0.0 10341337
14:00−22з587085 0.0 10331493
17:00−24з2282100 0.0 103352
20:00−29зюз128992 0.0 103519
1 марта, пн
пн123:00−30юз229187 0.0 103520
02:00−30юз228993 0.0 103520
05:00−31юз228881 0.0 103519
08:00−31юз128668 0.0 103620
11:00−24зюз147583 0.0 1033543
14:00−22з346891 0.0 10321541
17:00−25з1180100 0.0 103120
20:00−30юз118385 0.0 103119
2 марта, вт
вт223:00−33юз118972 0.0 103019
02:00−34ююз009169 0.0 102919
05:00−36ссз009373 0.0 102919
08:00−35с009563 0.0 102819
11:00−29св118989 0.0 1027295
14:00−26св128695 0.1 1025500
17:00−27ссз1195100 0.1 102519
20:00−29зсз1199100 0.1 102819